167  
ASUS43 KMKX 210821  
RWRWI  
 
WISCONSIN REGIONAL WEATHER ROUNDUP  
NATIONAL WEATHER SERVICE MILWAUKEE/SULLIVAN WI  
300 AM CDT THU OCT 21 2021  
 
NOTE: "FAIR" INDICATES FEW OR NO CLOUDS BELOW 12,000 FEET WITH NO  
SIGNIFICANT WEATHER AND/OR S TO VISIBILITY
.  
 
WIZ001-002-006>008-014>016-023>028-210900-  
NORTHWEST WISCONSIN  
 
CITY SKY/WX TMP DP RH WIND PRES REMARKS
 
SUPERIOR ARPT CLOUDY 44 37 76 NE12G20 29.99S  
ASHLAND LGT RAIN 42 39 89 NE16G26 29.96S  
HAYWARD LGT RAIN 44 40 85 NE13 29.90S  
SIREN DRIZZLE 42 41 96 NE13G18 29.92S  
CUMBERLAND LGT RAIN 43 41 93 N13 29.87R  
RICE LAKE RAIN 45 44 96 N15G21 29.87R  
CHETEK DRIZZLE 46 45 97 N8 29.85R  
LADYSMITH LGT RAIN 45 45 100 N8G18 29.87R  
EAU CLAIRE LGT RAIN 50 48 93 N9 29.80R  
MENOMONIE N/A 45 45 100 N16 29.82R  
NEW RICHMOND DRIZZLE 46 43 91 N12G21 29.87R  
OSCEOLA DRIZZLE 45 45 100 N9 29.91R  

 
 
WIZ003>005-009-010-017-018-210900-  
NORTH CENTRAL WISCONSIN  
 
CITY SKY/WX TMP DP RH WIND PRES REMARKS
 
MANITOWISH WTR RAIN 39 39 100 NE10G16 29.89S WCI 32  
ARBOR VITAE DRIZZLE 42 30 63 NE9 29.87S  
WOODRUFF DRIZZLE 42 30 63 NE9 29.87S  
RHINELANDER LGT RAIN 43 41 93 NE8G17 29.85S FOG  
EAGLE RIVER HVY RAIN 41 41 100 NE9 29.87S  
LAND O LAKES DRIZZLE 40 40 100 N6 29.91R  
PHILLIPS CLOUDY 42 42 100 NE13G18 29.86R  
TOMAHAWK N/A 43 42 98 N6 29.84S  
MEDFORD CLOUDY 45 45 100 NE13 29.80S  
MERRILL DRIZZLE 46 46 100 NE7 29.81R  

 
 
WIZ029-030-035-036-043>047-210900-  
CENTRAL WISCONSIN  
 
CITY SKY/WX TMP DP RH WIND PRES REMARKS
 
WAUSAU CLOUDY 50 47 89 N5 29.79S FOG  
MOSINEE LGT RAIN 46 45 93 NE8 29.80S  
MARSHFIELD CLOUDY 50 48 93 NE9 29.78S FOG  
STEVENS POINT CLOUDY 47 47 100 NE6 29.78F  
WAUPACA CLOUDY 53 52 95 N5 29.76F FOG  
WAUTOMA CLOUDY 54 54 100 NE9 29.75F FOG  
WISC RAPIDS LGT RAIN 52 50 93 E12 29.77F FOG  
CAMP DOUGLAS CLOUDY 55 51 86 W8 29.76R  

 
 
WIZ011>013-019>022-031-037>040-048>050-210900-  
NORTHEAST WISCONSIN  
 
CITY SKY/WX TMP DP RH WIND PRES REMARKS
 
ANTIGO CLOUDY 44 44 100 NE13 29.81F FOG  
SHAWANO CLOUDY 49 49 100 NE10 29.79F  
OCONTO CLOUDY 48 48 100 N9 29.79F  
STURGEON BAY LGT RAIN 53 53 100 N10 29.79F  
GREEN BAY CLOUDY 55 54 96 NE16G24 29.77F  
MANITOWOC CLOUDY 57 57 100 CALM 29.74F FOG  
APPLETON CLOUDY 54 52 94 NE10 29.74F FOG  
CLINTONVILLE NOT AVBL  
OSHKOSH CLOUDY 59 59 100 E3 29.74F FOG  

 
 
WIZ032>034-041-042-053>061-210900-  
SOUTHWEST WISCONSIN  
 
CITY SKY/WX TMP DP RH WIND PRES REMARKS
 
LA CROSSE LGT RAIN 53 51 93 S10 29.78R FOG  
SPARTA CLOUDY 54 52 92 CALM 29.79R  
VIROQUA CLOUDY 48 48 100 W13 29.79S  
BOSCOBEL CLOUDY 51 47 86 SW8G18 29.82R  
PRAIRIE DU CHI DRIZZLE 48 43 82 SW6 29.83R  
PLATTEVILLE CLOUDY 49 48 97 SW16 29.83S  

 
 
WIZ056-057-062-063-064-067-068-210900-  
SOUTH CENTRAL WISCONSIN  
 
CITY SKY/WX TMP DP RH WIND PRES REMARKS
 
REEDSBURG CLOUDY 54 49 82 SW7 29.76F  
BARABOO/DELLS CLOUDY 53 47 80 W8 29.76S  
LONE ROCK CLOUDY 53 48 83 SW6 29.79S  
MINERAL POINT CLOUDY 50 45 81 W10 29.81R  
MADISON MOCLDY 54 47 77 VRB6 29.77S  
MIDDLETON CLOUDY 55 47 76 W12G17 29.79F  
WATERTOWN MOCLDY 57 54 87 SW7 29.76F  
MONROE CLOUDY 52 46 79 W15G26 29.80S  
JANESVILLE MOCLDY 54 46 76 W7 29.80S  

 
 
WIZ051-052-058>065-066-070>072-210900-  
SOUTHEAST WISCONSIN  
 
CITY SKY/WX TMP DP RH WIND PRES REMARKS
 
MILWAUKEE PTCLDY 62 57 83 SW7 29.76F  
WAUKESHA PTCLDY 54 52 94 SW6 29.77F  
MILWAUKEE/TIMM PTCLDY 57 52 82 SW7 29.77F  
RACINE CLEAR 61 55 81 SW7 29.79F  
KENOSHA PTCLDY 60 54 80 SW12 29.78F  
FOND DU LAC HAZE 58 53 84 CALM 29.73F VSB 1/2  
SHEBOYGAN FOG 56 56 100 CALM 29.73F VSB 1/2  
WEST BEND NOT AVBL  
JUNEAU MOCLDY 57 54 91 SW8 29.76F  

 
 
LSZ147-162-210900-  
LAKE SUPERIOR  
 
STATION/POSITION TIME TEMP WIND PRES WAVE
 
AIR SEA DIR/SP/G HT/PER  
(UTC) (F) (DEG/KT/KT) (MB) (FT/S)  
W MID LAKE BUOY 0800 45 53 40/ 17/ 21 1016.4  
DEVILS ISLAND 0800 43 1016.0R  
PORT WING 0730 45 40/ 20/ 23 1015.2S  
SAXON HARBOR 0730 44 80/ 8/ 11 1013.9S  

 
 
LMZ867-665-643>646-210900-  
LAKE MICHIGAN  
 
STATION/POSITION TIME TEMP WIND PRES WAVE
 
AIR SEA DIR/SP/G HT/PER  
(UTC) (F) (DEG/KT/KT) (MB) (FT/S)  
N MID LAKE BUOY 0800 54 62 40/ 16/ 21 1009.8  
NORTHPORT PIER 0730 51 360/ 13/ 18 1010.8F  
KEWAUNEE LAKESHO 0748 60 50/ 3/ 6 1006.5F  
SHEBOYGAN LAKESH 0800 60 250/ 1/ 1 N/A  
PORT WASHINGTON 0740 61 250/ 5/ 7 1008.5F  
ATWATER BUOY 0800 63 62 250/ 10/ 12 1008.0 1/ 3  
MILWAUKEE LAKESH 0800 61 250/ 5/ 6 N/A  
S MID LAKE BUOY 0800 64 63 210/ 14/ 17 1007.7  
KENOSHA LAKESH 0800 62 230/ 7/ 11 1008.8  

 
 
TC - TEMPERATURE IN CELSIUS  
VSB - VISIBILITY IN STATUTE MILES  
WCI - WIND CHILL INDEX  
HX - HEAT INDEX  
 
 
 
CLICK HERE TO GO TO PREVIOUS BULLETINS.

The Nexlab WI Page Main Text Page